Location: Marcé
(47.5801°N, 0.3280°W)
Time: 06:08:56
(UTC+02:00)

N. Korean satellite - Visible Passes

Search period start: 17 October 2021 00:00
Search period end: 27 October 2021 00:00
Orbit: 450 x 495 km, 97.3° (Epoch: 16 October)

Date Brightness Start Highest point End Pass type
(mag) Time Alt. Az. Time Alt. Az. Time Alt. Az.
17 Oct 10.1 06:12:34 10° ENE 06:14:07 12° E 06:15:40 10° ESE visible
17 Oct 6.7 07:44:04 10° N 07:47:40 55° WNW 07:51:15 10° SSW visible
18 Oct 7.0 07:16:00 10° NNE 07:19:40 67° E 07:23:17 10° S visible
19 Oct 8.7 06:48:13 10° NNE 06:51:31 30° E 06:54:47 10° SSE visible
20 Oct 9.9 06:21:01 10° NE 06:23:16 15° E 06:25:30 10° SE visible
20 Oct 7.0 07:53:12 10° N 07:56:42 43° WNW 08:00:10 10° SW visible
21 Oct 6.6 07:25:00 10° NNE 07:28:41 86° ESE 07:32:20 10° SSW visible
21 Oct 10.2 19:37:26 10° WSW 19:39:08 13° W 19:40:51 10° WNW visible
22 Oct 8.1 06:57:05 10° NNE 07:00:33 39° E 07:03:59 10° SSE visible
23 Oct 9.5 06:29:37 10° NE 06:32:18 19° E 06:34:58 10° SE visible
24 Oct 6.5 07:33:57 10° N 07:37:36 73° WNW 07:41:14 10° SSW visible
24 Oct 10.6 19:47:37 10° W 19:48:08 10° W 19:48:39 10° W visible
25 Oct 7.6 07:05:55 10° NNE 07:09:29 50° E 07:13:01 10° S visible
26 Oct 9.1 06:38:13 10° NE 06:41:14 24° E 06:44:12 10° SSE visible
